Cairo, Egypt

5:34 AM EET on December 17, 2017 (GMT +0200)
Cairo International Airport

Weather History for HECA - January, 2013

Change the Weather History Date:

Thursday, January 17, 2013

  Actual Average Record
Temperature  
Mean Temperature 62 °F -  
Max Temperature 69 °F 65 °F 71 °F (1998)
Min Temperature 54 °F 49 °F 42 °F (2008)
Degree Days  
Heating Degree Days 4    
Growing Degree Days 12 (Base 50)    
Moisture  
Dew Point 39 °F    
Average Humidity 44    
Maximum Humidity 77    
Minimum Humidity 27    
Precipitation  
Precipitation 0.00 in 0.01 in - ()
Sea Level Pressure  
Sea Level Pressure 30.06 in    
Wind  
Wind Speed 6 mph ()    
Max Wind Speed 12 mph    
Max Gust Speed -    
Visibility 2.0 miles    
Events      
Averages and records for this station are not official NWS values.
T = Trace of Precipitation, MM = Missing Value Source: Averaged Metar Reports

Daily Weather History Graph

Daily Weather History Graph

Search for Another Location

Airport or City:

Trip Planner

Search our weather history database for the weather conditions in past years. The results will help you decide how hot, cold, wet, or windy it might be!

Date:

Astronomy

Jan. 17, 2013 Rise Set
Actual Time 6:50 AM EET 5:18 PM EET
Civil Twilight 6:25 AM EET 5:44 PM EET
Nautical Twilight 5:55 AM EET 6:13 PM EET
Astronomical Twilight 5:27 AM EET 6:42 PM EET
Moon 10:17 AM EET 11:17 PM EET
Length of Visible Light 11h 18m
Length of Day
10h 27m
Waxing Crescent, 34% of the Moon is Illuminated
Jan 17
Waxing Crescent
Jan 19
First Quarter
Jan 27
Full
Feb 3
Last Quarter
Feb 10
New

Hourly Weather History & Observations

Time (EET) Temp. Dew Point Humidity Pressure Visibility Wind Dir Wind Speed Gust Speed Precip Events Conditions
12:00 AM 59.0 °F 35.6 °F 42% 30.04 in 0.5 mi South 5.8 mph - N/A   Haze
12:15 AM 59.0 °F 35.6 °F 42% 30.04 in 0.9 mi SSE 6.9 mph - N/A   Haze
12:30 AM 59.0 °F 35.6 °F 42% 30.04 in 0.9 mi SSE 11.5 mph - N/A   Haze
1:00 AM 59.0 °F 35.6 °F 42% 30.04 in 0.9 mi South 4.6 mph - N/A   Haze
1:30 AM 59.0 °F 35.6 °F 42% 30.06 in 1.2 mi South 11.5 mph - N/A   Haze
2:00 AM 58 °F 35 °F 30% 30.06 in 1 mi South 10.4 mph - -   Haze
2:00 AM 59.0 °F 35.6 °F 42% 30.04 in 1.2 mi South 10.4 mph - N/A   Haze
2:30 AM 59.0 °F 33.8 °F 39% 30.04 in 1.9 mi South 9.2 mph - N/A   Haze
3:00 AM 59.0 °F 37.4 °F 45% 30.04 in 0.9 mi SW 8.1 mph - N/A   Haze
3:30 AM 57.2 °F 33.8 °F 41% 30.04 in 0.9 mi SSW 2.3 mph - N/A   Haze
4:00 AM 55.4 °F 35.6 °F 47% 30.04 in 0.9 mi WNW 3.5 mph - N/A   Haze
4:30 AM 55.4 °F 33.8 °F 44% 30.04 in 0.9 mi WNW 2.3 mph - N/A   Haze
5:00 AM 55.4 °F 37.4 °F 51% 30.06 in 0.9 mi WNW 1.2 mph - N/A   Haze
5:30 AM 53.6 °F 33.8 °F 47% 30.06 in 0.9 mi NNW 3.5 mph - N/A   Haze
6:30 AM 51.8 °F 32.0 °F 47% 30.06 in 0.9 mi South 3.5 mph - N/A   Haze
7:00 AM 53.6 °F 32.0 °F 44% 30.06 in 0.9 mi South 5.8 mph - N/A   Haze
7:30 AM 53.6 °F 32.0 °F 44% 30.06 in 0.9 mi South 5.8 mph - N/A   Haze
8:00 AM 56 °F 35 °F 33% 30.10 in 1 mi SW 2.3 mph - -   Haze
8:00 AM 57.2 °F 35.6 °F 44% 30.09 in 0.9 mi SW 2.3 mph - N/A   Haze
8:30 AM 57.2 °F 35.6 °F 44% 30.09 in 1.2 mi SW 2.3 mph - N/A   Haze
9:00 AM 60.8 °F 35.6 °F 39% 30.09 in 1.2 mi SW 3.5 mph - N/A   Haze
9:30 AM 62.6 °F 35.6 °F 37% 30.09 in 3.7 mi West 6.9 mph - N/A   Unknown
10:00 AM 62.6 °F 35.6 °F 37% 30.12 in 3.7 mi WNW 4.6 mph - N/A   Unknown
10:33 AM 62.6 °F 35.6 °F 37% 30.12 in 3.7 mi WNW 4.6 mph - N/A   Unknown
11:00 AM 64.4 °F 44.6 °F 49% 30.09 in 3.7 mi NNW 3.5 mph - N/A   Unknown
11:30 AM 66.2 °F 37.4 °F 35% 30.09 in 3.7 mi NNW 3.5 mph - N/A   Unknown
12:00 PM 68.0 °F 37.4 °F 33% 30.06 in 3.7 mi NW 4.6 mph - N/A   Unknown
12:30 PM 68.0 °F 37.4 °F 33% 30.04 in 3.7 mi North 6.9 mph - N/A   Unknown
1:30 PM 68.0 °F 35.6 °F 30% 30.04 in - North 9.2 mph - N/A   Clear
2:00 PM 70 °F 43 °F 27% 30.04 in 6 mi North 6.9 mph - -   Partly Cloudy
2:00 PM 68.0 °F 35.6 °F 30% 30.04 in - North 8.1 mph - N/A   Clear
2:30 PM 69.8 °F 35.6 °F 28% 30.04 in - North 9.2 mph - N/A   Clear
3:00 PM 68.0 °F 37.4 °F 33% 30.04 in - North 9.2 mph - N/A   Clear
3:30 PM 68.0 °F 39.2 °F 35% 30.04 in - NNE 9.2 mph - N/A   Clear
4:00 PM 68.0 °F 39.2 °F 35% 30.04 in - North 9.2 mph - N/A   Clear
4:30 PM 68.0 °F 41.0 °F 37% 30.04 in - North 9.2 mph - N/A   Clear
5:00 PM 68.0 °F 41.0 °F 37% 30.04 in - North 9.2 mph - N/A   Clear
6:00 PM 66.2 °F 44.6 °F 46% 30.06 in - North 6.9 mph - N/A   Clear
6:30 PM 66.2 °F 44.6 °F 46% 30.06 in - North 6.9 mph - N/A   Clear
7:00 PM 62.6 °F 44.6 °F 52% 30.06 in - NE 6.9 mph - N/A   Clear
7:30 PM 62.6 °F 44.6 °F 52% 30.06 in - ENE 4.6 mph - N/A   Clear
8:00 PM 62 °F 45 °F 42% 30.08 in 6 mi NNE 5.8 mph - -   Mostly Cloudy
8:00 PM 60.8 °F 44.6 °F 55% 30.06 in - NNE 5.8 mph - N/A   Clear
8:30 PM 60.8 °F 44.6 °F 55% 30.06 in - NNE 5.8 mph - N/A   Clear
9:00 PM 59.0 °F 44.6 °F 59% 30.04 in - NE 5.8 mph - N/A   Clear
9:30 PM 59.0 °F 44.6 °F 59% 30.04 in - NE 5.8 mph - N/A   Clear
10:00 PM 59.0 °F 46.4 °F 63% 30.04 in - ENE 8.1 mph - N/A   Clear
10:30 PM 59.0 °F 46.4 °F 63% 30.04 in - ENE 8.1 mph - N/A   Clear
11:00 PM 57.2 °F 50.0 °F 77% 30.04 in - ENE 9.2 mph - N/A   Clear
11:30 PM 57.2 °F 50.0 °F 77% 30.04 in - ENE 9.2 mph - N/A   Clear